Find Starlink 3681

NORAD ID: 51968 Int'l Des: 2022-025 Owner: SPXS Country: US Constellation: starlink operational
LEOCIRCULAR

現在のビュー

3D地球を読み込み中...

About Starlink 3681

Starlink 3681 (NORAD 51968) is a starlink constellation satellite (v1.5) launched Mar 9, 2022 by SPXS of US. It operates in LEO, CIRCULAR orbit with a mass of 297.00 kg.

Starlink 3681について

説明を読み込み中...

次回通過

Passes for default location (London). Set your location on the main map for personalized predictions.

高度履歴

Loading altitude history...

軌道要素

1 51968U 22025N 26170.02382150 .00001553 00000-0 61839-4 0 9992
2 51968 53.1592 272.8641 0001055 78.2904 281.8216 15.31682807236546
Epoch: Jun 19, 2026 • Age: 15 hours

現在のステータス

高度 480.1 km
速度 7.63 km/s
衛星直下点 -29.61°S, 95.91°E
打ち上げ日 Mar 9, 2022
運用期間 4.2 years
タイプ internet

技術仕様

分類 Payload
質量 297.00 kg
乾燥質量 275.00 kg
総質量 297.00 kg
長さ 0.20 m
直径 2.80 m
スパン 9.00 m
形状 Box + pan
製造者 SPXS
バスタイプ Starlink
フェーズステータス In Orbit
所有者/国 SPXS/US

Most Searched